TAY2ST EGSS-EBLG

Flight info

Callsign TAY2ST
Flight time 0h 42m
Altitude 29000
Route CLN M84 KONAN UL607 KOK
Aircraft B738/M-SDE2E3FGHIRWXY/LB1

Departure

Time 2026-04-21 15:19
Airport London Stansted Airport (EGSS)

Arrival

Time 2026-04-21 16:01
Airport Liège Airport (EBLG)
Time Latitude Longitude Altitude Speed Heading
2026-04-21 15:05 51.88418 0.24387 345 ft 0 kts 221°
2026-04-21 15:13 51.88417 0.24383 345 ft 4 kts 212°
2026-04-21 15:13 51.88433 0.24388 354 ft 4 kts 192°
2026-04-21 15:13 51.88455 0.24405 351 ft 4 kts 235°
2026-04-21 15:13 51.88462 0.24442 353 ft 4 kts 283°
2026-04-21 15:14 51.88456 0.24466 355 ft 0 kts 313°
2026-04-21 15:15 51.88485 0.24416 353 ft 12 kts 313°
2026-04-21 15:16 51.88512 0.24284 349 ft 13 kts 226°
2026-04-21 15:16 51.88438 0.24171 341 ft 19 kts 222°
2026-04-21 15:16 51.88310 0.23978 335 ft 30 kts 223°
2026-04-21 15:16 51.88155 0.23745 336 ft 30 kts 223°
2026-04-21 15:17 51.88002 0.23518 336 ft 29 kts 223°
2026-04-21 15:17 51.87860 0.23302 336 ft 27 kts 224°
2026-04-21 15:17 51.87732 0.23096 334 ft 23 kts 245°
2026-04-21 15:17 51.87807 0.22905 336 ft 21 kts 313°
2026-04-21 15:18 51.87905 0.22733 333 ft 20 kts 313°
2026-04-21 15:18 51.87953 0.22663 333 ft 2 kts 19°
2026-04-21 15:18 51.87971 0.22686 334 ft 6 kts 42°
2026-04-21 15:18 51.88151 0.22955 332 ft 81 kts 41°
2026-04-21 15:19 51.88788 0.23883 405 ft 158 kts 43°
2026-04-21 15:19 51.89686 0.25210 1155 ft 186 kts 45°
2026-04-21 15:19 51.90672 0.26712 2192 ft 203 kts 48°
2026-04-21 15:19 51.91452 0.28719 3233 ft 221 kts 73°
2026-04-21 15:20 51.91591 0.31252 4292 ft 240 kts 95°
2026-04-21 15:20 51.91032 0.33955 4427 ft 262 kts 117°
2026-04-21 15:20 51.90021 0.36380 5507 ft 255 kts 122°
2026-04-21 15:20 51.88993 0.38646 6756 ft 249 kts 123°
2026-04-21 15:21 51.87944 0.40929 7609 ft 255 kts 123°
2026-04-21 15:21 51.86870 0.43267 8447 ft 262 kts 124°
2026-04-21 15:21 51.85780 0.45644 9456 ft 262 kts 123°
2026-04-21 15:21 51.84694 0.48017 10273 ft 269 kts 124°
2026-04-21 15:22 51.83551 0.50522 10794 ft 287 kts 124°
2026-04-21 15:22 51.82318 0.53233 11102 ft 309 kts 123°
2026-04-21 15:22 51.81021 0.56083 11742 ft 318 kts 124°
2026-04-21 15:22 51.79709 0.58954 12742 ft 316 kts 123°
2026-04-21 15:23 51.78384 0.61856 13482 ft 324 kts 123°
2026-04-21 15:23 51.77037 0.64807 14252 ft 330 kts 124°
2026-04-21 15:23 51.75681 0.67776 14959 ft 335 kts 124°
2026-04-21 15:23 51.74285 0.70830 15671 ft 338 kts 124°
2026-04-21 15:24 51.72865 0.73929 16246 ft 347 kts 123°
2026-04-21 15:24 51.71427 0.77065 17003 ft 351 kts 124°
2026-04-21 15:24 51.69961 0.80262 17685 ft 356 kts 123°
2026-04-21 15:24 51.68472 0.83506 18310 ft 363 kts 123°
2026-04-21 15:25 51.66949 0.86820 18830 ft 371 kts 125°
2026-04-21 15:25 51.65396 0.90194 19316 ft 379 kts 123°
2026-04-21 15:25 51.63812 0.93629 19880 ft 384 kts 125°
2026-04-21 15:25 51.62206 0.97105 20402 ft 390 kts 125°
2026-04-21 15:26 51.60610 1.00555 21156 ft 389 kts 125°
2026-04-21 15:26 51.58981 1.04071 21700 ft 394 kts 124°
2026-04-21 15:26 51.57330 1.07632 22216 ft 400 kts 125°
2026-04-21 15:26 51.55647 1.11260 22569 ft 409 kts 125°
2026-04-21 15:27 51.53930 1.14954 23057 ft 416 kts 126°
2026-04-21 15:27 51.52199 1.18674 23717 ft 416 kts 126°
2026-04-21 15:27 51.50452 1.22419 24133 ft 422 kts 126°
2026-04-21 15:27 51.48679 1.26219 24492 ft 428 kts 126°
2026-04-21 15:28 51.46880 1.30069 24866 ft 434 kts 126°
2026-04-21 15:28 51.45057 1.33964 25230 ft 440 kts 126°
2026-04-21 15:28 51.43230 1.37860 25591 ft 445 kts 126°
2026-04-21 15:28 51.41332 1.41854 25951 ft 450 kts 127°
2026-04-21 15:29 51.39412 1.45847 26501 ft 449 kts 127°
2026-04-21 15:29 51.37518 1.49769 27132 ft 447 kts 127°
2026-04-21 15:29 51.35612 1.53709 27510 ft 451 kts 127°
2026-04-21 15:29 51.33690 1.57686 27851 ft 456 kts 127°
2026-04-21 15:30 51.31734 1.61729 28188 ft 461 kts 127°
2026-04-21 15:30 51.29740 1.65851 28271 ft 473 kts 127°
2026-04-21 15:30 51.27719 1.70023 28660 ft 475 kts 127°
2026-04-21 15:30 51.25707 1.74169 29205 ft 475 kts 127°
2026-04-21 15:31 51.23685 1.78327 29689 ft 475 kts 127°
2026-04-21 15:31 51.21652 1.82504 30114 ft 478 kts 127°
2026-04-21 15:31 51.19607 1.86700 30514 ft 479 kts 127°
2026-04-21 15:31 51.17566 1.90879 31088 ft 474 kts 127°
2026-04-21 15:32 51.15585 1.95025 31256 ft 468 kts 122°
2026-04-21 15:32 51.14049 1.99524 31289 ft 457 kts 109°
2026-04-21 15:32 51.12483 2.09169 31274 ft 447 kts 90°
2026-04-21 15:33 51.12016 2.19006 31281 ft 450 kts 89°
2026-04-21 15:33 51.11532 2.28969 31276 ft 452 kts 89°
2026-04-21 15:34 51.10993 2.38937 31303 ft 450 kts 90°
2026-04-21 15:34 51.10438 2.48734 31269 ft 440 kts 90°
2026-04-21 15:35 51.09889 2.58456 31270 ft 439 kts 90°
2026-04-21 15:35 51.09590 2.63275 30938 ft 437 kts 94°
2026-04-21 15:35 51.08710 2.67908 30582 ft 441 kts 115°
2026-04-21 15:36 51.07237 2.72157 30265 ft 437 kts 117°
2026-04-21 15:36 51.05737 2.76351 29797 ft 435 kts 117°
2026-04-21 15:36 51.04247 2.80507 29384 ft 431 kts 117°
2026-04-21 15:36 51.02793 2.84586 29027 ft 427 kts 117°
2026-04-21 15:37 51.01347 2.88673 28606 ft 422 kts 117°
2026-04-21 15:37 50.99921 2.92724 28195 ft 418 kts 117°
2026-04-21 15:37 50.98511 2.96740 27794 ft 414 kts 117°
2026-04-21 15:37 50.97117 3.00716 27398 ft 410 kts 117°
2026-04-21 15:38 50.95731 3.04665 26998 ft 407 kts 117°
2026-04-21 15:38 50.94360 3.08568 26606 ft 403 kts 117°
2026-04-21 15:38 50.93002 3.12427 26217 ft 399 kts 117°
2026-04-21 15:38 50.91653 3.16254 25822 ft 396 kts 117°
2026-04-21 15:39 50.90319 3.20032 25430 ft 392 kts 117°
2026-04-21 15:39 50.88986 3.23803 25040 ft 389 kts 117°
2026-04-21 15:39 50.87680 3.27492 24667 ft 386 kts 117°
2026-04-21 15:39 50.86360 3.31213 24292 ft 383 kts 117°
2026-04-21 15:40 50.85065 3.34860 23906 ft 381 kts 116°
2026-04-21 15:40 50.83777 3.38481 23472 ft 378 kts 116°
2026-04-21 15:40 50.82482 3.42117 23045 ft 374 kts 116°
2026-04-21 15:40 50.81214 3.45672 22640 ft 371 kts 117°
2026-04-21 15:41 50.79965 3.49168 22267 ft 367 kts 117°
2026-04-21 15:41 50.78708 3.52683 21882 ft 363 kts 117°
2026-04-21 15:41 50.77474 3.56126 21514 ft 360 kts 116°
2026-04-21 15:41 50.76247 3.59550 21165 ft 357 kts 117°
2026-04-21 15:42 50.75032 3.62932 20789 ft 354 kts 116°
2026-04-21 15:42 50.73810 3.66331 20427 ft 350 kts 117°
2026-04-21 15:42 50.72627 3.69616 20075 ft 348 kts 116°
2026-04-21 15:42 50.71426 3.72946 19714 ft 345 kts 116°
2026-04-21 15:43 50.70244 3.76222 19379 ft 342 kts 116°
2026-04-21 15:43 50.69077 3.79451 19023 ft 340 kts 116°
2026-04-21 15:43 50.67898 3.82712 18667 ft 338 kts 117°
2026-04-21 15:43 50.66736 3.85918 18285 ft 335 kts 116°
2026-04-21 15:44 50.65594 3.89067 17904 ft 333 kts 116°
2026-04-21 15:44 50.64449 3.92217 17541 ft 329 kts 116°
2026-04-21 15:44 50.63320 3.95323 17187 ft 326 kts 117°
2026-04-21 15:44 50.62188 3.98430 16826 ft 323 kts 116°
2026-04-21 15:45 50.61079 4.01470 16485 ft 320 kts 117°
2026-04-21 15:45 50.59978 4.04486 16149 ft 316 kts 117°
2026-04-21 15:45 50.58894 4.07453 15813 ft 314 kts 117°
2026-04-21 15:45 50.57802 4.10439 15490 ft 311 kts 117°
2026-04-21 15:46 50.56732 4.13362 15149 ft 308 kts 117°
2026-04-21 15:46 50.55667 4.16268 14820 ft 306 kts 117°
2026-04-21 15:46 50.54604 4.19165 14488 ft 304 kts 117°
2026-04-21 15:46 50.53552 4.22027 14161 ft 302 kts 117°
2026-04-21 15:47 50.52506 4.24871 13815 ft 300 kts 117°
2026-04-21 15:47 50.51470 4.27685 13450 ft 298 kts 117°
2026-04-21 15:47 50.50442 4.30475 13116 ft 295 kts 117°
2026-04-21 15:47 50.49410 4.33273 12797 ft 292 kts 117°
2026-04-21 15:48 50.48408 4.35987 12473 ft 289 kts 117°
2026-04-21 15:48 50.47390 4.38738 12161 ft 286 kts 117°
2026-04-21 15:48 50.46401 4.41407 11850 ft 284 kts 117°
2026-04-21 15:48 50.45490 4.44137 11518 ft 279 kts 105°
2026-04-21 15:49 50.45199 4.47091 11322 ft 270 kts 93°
2026-04-21 15:49 50.45050 4.49997 11010 ft 269 kts 93°
2026-04-21 15:49 50.44906 4.52902 10715 ft 266 kts 93°
2026-04-21 15:49 50.44761 4.55792 10436 ft 264 kts 93°
2026-04-21 15:50 50.44616 4.58619 10321 ft 256 kts 93°
2026-04-21 15:50 50.44474 4.61359 10150 ft 250 kts 93°
2026-04-21 15:50 50.44329 4.64092 9782 ft 252 kts 94°
2026-04-21 15:50 50.44181 4.66796 9609 ft 245 kts 94°
2026-04-21 15:51 50.44040 4.69475 9255 ft 247 kts 94°
2026-04-21 15:51 50.43900 4.72140 9077 ft 242 kts 94°
2026-04-21 15:51 50.43755 4.74767 8773 ft 242 kts 94°
2026-04-21 15:51 50.43610 4.77393 8505 ft 240 kts 93°
2026-04-21 15:52 50.43469 4.79998 8169 ft 241 kts 94°
2026-04-21 15:52 50.43326 4.82598 7853 ft 242 kts 94°
2026-04-21 15:52 50.43224 4.84359 7725 ft 239 kts 94°
2026-04-21 15:52 50.43022 4.87764 7414 ft 236 kts 93°
2026-04-21 15:53 50.42884 4.90320 7148 ft 234 kts 93°
2026-04-21 15:53 50.42745 4.92865 6890 ft 234 kts 93°
2026-04-21 15:53 50.42652 4.94548 6690 ft 235 kts 93°
2026-04-21 15:53 50.42467 4.97951 6376 ft 231 kts 93°
2026-04-21 15:54 50.42375 4.99602 6263 ft 228 kts 93°
2026-04-21 15:54 50.42235 5.02075 5936 ft 230 kts 93°
2026-04-21 15:54 50.42100 5.04591 5583 ft 232 kts 92°
2026-04-21 15:54 50.41960 5.07102 5380 ft 229 kts 93°
2026-04-21 15:55 50.42007 5.09551 5132 ft 224 kts 70°
2026-04-21 15:55 50.42742 5.11645 4997 ft 217 kts 51°
2026-04-21 15:55 50.43832 5.13283 4747 ft 217 kts 43°
2026-04-21 15:55 50.44944 5.14890 4491 ft 220 kts 46°
2026-04-21 15:56 50.46033 5.16557 4299 ft 217 kts 45°
2026-04-21 15:56 50.47094 5.18193 4164 ft 211 kts 45°
2026-04-21 15:56 50.48144 5.19788 4030 ft 207 kts 45°
2026-04-21 15:56 50.49179 5.21315 3914 ft 202 kts 44°
2026-04-21 15:57 50.50182 5.22834 3821 ft 198 kts 46°
2026-04-21 15:57 50.51153 5.24362 3719 ft 200 kts 47°
2026-04-21 15:57 50.52142 5.25946 3545 ft 205 kts 47°
2026-04-21 15:57 50.53141 5.27570 3366 ft 207 kts 47°
2026-04-21 15:58 50.54149 5.29175 3120 ft 206 kts 46°
2026-04-21 15:58 50.55165 5.30761 2854 ft 202 kts 46°
2026-04-21 15:58 50.56136 5.32293 2637 ft 197 kts 46°
2026-04-21 15:58 50.57061 5.33779 2462 ft 187 kts 45°
2026-04-21 15:59 50.57957 5.35203 2145 ft 177 kts 46°
2026-04-21 15:59 50.58790 5.36524 1896 ft 163 kts 47°
2026-04-21 15:59 50.59549 5.37739 1695 ft 150 kts 46°
2026-04-21 15:59 50.60271 5.38895 1445 ft 144 kts 47°
2026-04-21 16:00 50.60965 5.40004 1216 ft 141 kts 46°
2026-04-21 16:00 50.61649 5.41092 1011 ft 139 kts 46°
2026-04-21 16:00 50.62334 5.42176 877 ft 141 kts 46°
2026-04-21 16:00 50.63026 5.43279 685 ft 142 kts 46°
2026-04-21 16:01 50.63657 5.44282 622 ft 106 kts 46°
2026-04-21 16:01 50.64027 5.44865 601 ft 45 kts 45°
2026-04-21 16:01 50.64158 5.45074 595 ft 24 kts 45°
2026-04-21 16:01 50.64273 5.45254 597 ft 23 kts 45°
2026-04-21 16:02 50.64380 5.45433 602 ft 22 kts 58°
2026-04-21 16:02 50.64387 5.45669 613 ft 21 kts 102°
2026-04-21 16:02 50.64307 5.45672 622 ft 15 kts 223°
2026-04-21 16:02 50.64224 5.45541 619 ft 19 kts 225°
2026-04-21 16:03 50.64120 5.45376 621 ft 23 kts 226°
2026-04-21 16:03 50.63997 5.45182 614 ft 27 kts 226°
2026-04-21 16:03 50.63863 5.44969 618 ft 28 kts 225°
2026-04-21 16:03 50.63730 5.44757 615 ft 26 kts 226°
2026-04-21 16:04 50.63605 5.44561 615 ft 24 kts 225°
2026-04-21 16:04 50.63490 5.44377 627 ft 23 kts 225°
2026-04-21 16:04 50.63380 5.44204 638 ft 18 kts 225°
2026-04-21 16:04 50.63313 5.44219 639 ft 6 kts 148°
2026-04-21 16:05 50.63296 5.44235 641 ft 0 kts 148°